Regional Weather Roundup
Issued by NWS Newport/Morehead, NC

Current Version | Previous Version | Graphics & Text | Print | Product List | Glossary On
Versions: 1 2 3 4 5 6 7 8 9 10 11 12 13 14 15 16 17 18 19 20 21 22 23 24 25 26 27 28 29 30 31 32 33 34 35 36 37 38 39 40 41 42 43 44 45 46 47 48 49 50
000 ASUS42 KMHX 222222 RWRMHX WEATHER ROUNDUP FOR EASTERN NORTH CAROLINA NATIONAL WEATHER SERVICE NEWPORT/MOREHEAD CITY NC 500 PM EST MON DEC 22 2014 NOTE: "FAIR" INDICATES FEW OR NO CLOUDS BELOW 12,000 FEET WITH NO SIGNIFICANT WEATHER AND/OR OBSTRUCTIONS TO VISIBILITY NCZ015>017-031-032-045>047-102-103-222300- NORTH COAST CITY SKY/WX TMP DP RH WIND PRES REMARKS EDENTON CLOUDY 50 49 98 N7 29.98S FOG ELIZABETH CITY CLOUDY 56 52 86 NE9 29.97F FOG KITTY HAWK FOG 54 54 100 N5 29.94F VSB 3/4 MANTEO CLOUDY 54 54 100 NE5 29.95F FOG $$ NCZ045>047-081-094-103-104-222300- CENTRAL COAST CITY SKY/WX TMP DP RH WIND PRES REMARKS FRISCO FOG 52 52 100 N6 29.95S VSB 1/2 SWANQUARTER N/A 52 N/A N/A NW1G7 29.91F $$ NCZ095-097-098-100-101-222300- SOUTHERN COAST CITY SKY/WX TMP DP RH WIND PRES REMARKS BEAUFORT CLOUDY 50 50 100 NW6 29.99S CEDAR ISLAND N/A 50 N/A N/A W9 30.03R JACKSONVILLE CLOUDY 46 45 96 N5 30.00S PINEY ISLAND N/A 53 32 44 NW6 29.98S WILMINGTON LGT RAIN 46 45 96 N6 30.00R $$ NCZ011>013-027>030-043-044-078>080-089-090>093-098-222300- COASTAL PLAIN CITY SKY/WX TMP DP RH WIND PRES REMARKS AHOSKIE CLOUDY 42 41 96 N8 30.03S FOG CLINTON CLOUDY 42 42 100 N7 30.03F FOG ELIZABETHTOWN CLOUDY 43 43 100 CALM 30.03R FOG GOLDSBORO CLOUDY 43 41 93 N6 30.01R GREENVILLE CLOUDY 43 43 100 N6 30.04R HAVELOCK FOG 49 48 97 NW7 30.01R VSB 1/2 KENANSVILLE CLOUDY 42 42 98 N5 30.04F FOG KINSTON CLOUDY 43 43 100 NW6 30.04R FOG NEW BERN CLOUDY 49 46 90 N5 30.01S FOG RICHLANDS CLOUDY 45 43 93 N5 30.02S ROCKY MOUNT CLOUDY 41 39 93 N12 30.04S WASHINGTON CLOUDY 46 45 97 NW5 30.01R WHITEVILLE LGT RAIN 44 43 96 N3 30.01R $$ AMZ130-135-150-152-154-156-158-170-250-252-270-ANZ085-086-088-633-658-670-222300- MARINE OBSERVATIONS STATION/POSITION TIME TEMP WIND PRES WAVE SWELL AIR SEA DIR/SP/G HT/PER HT/PER (UTC) (F) (DEG/KT/KT) (MB) (FT/S) (FT/S) CHESAPEAKE LIGHT 2200 51 70/ 30/ 32 1015.1 64 E VA BEACH 2200 60 54 70/ 16/ 17 1015.1 10/ 7 DUCK 2200 52 46 40/ 20/ 23 1013.3 2 E DUCK 2200 48 N/A 9/ 8 10 NE DUCK 2200 51 N/A 10/ 8 2/11 OREGON INLET 2200 53 48 340/ 2/ 3 1014.3 13E OREGON INLT 2200 53 N/A 9/ 8 2/11 HATTERAS CG 2200 51 54 320/ 5/ 6 1014.7 DIAMOND BUOY 2200 69 1014.0 8/ 9 17 S OCRACOKE NOT AVBL CAPE LOOKOUT 2200 51 320/ 8/ 10 1015.7 BEAUFORT LAB 2200 50 50 350/ 7/ 7 1014.4 30 SE NEW RIVER 2200 52 60 350/ 10/ 12 1016.1 5/ 7 3/ 7 5 SE WRIGHTSVLE NOT AVBL 225 S CAPE HAT 2108 73 72 240/ 12/ 14 1015.8 5/ 6 3/ 6 41 SE CHARLESTON 2200 60 73 10/ 14/ 17 1015.2 4/ 9 2/ 9 $$

USA.gov is the U.S. government's official web portal to all federal, state and local government web resources and services.